Tracking 18980 objects as of 21-Feb-2018
HD Live streaming from Space Station
objects crossing your sky now

COSMOS 588

Track COSMOS 588 now!
10-day predictions
COSMOS 588 is classified as:


NORAD ID: 6845
Int'l Code: 1973-069A
Perigee: 1,455.3 km
Apogee: 1,499.8 km
Inclination: 74.0 °
Period: 115.3 minutes
Semi major axis: 7848 km
RCS: 0.707 m2 (medium)
Launch date: October 2, 1973
Source: Commonwealth of Independent States (former USSR) (CIS)
Launch site: PLESETSK MISSILE AND SPACE COMPLEX (PKMTR)
aabbcc
Your satellite tracking list
Your tracking list is empty




NASA's NSSDC Master Catalog

Two Line Element Set (TLE):
1 06845U 73069A   18052.20564993 -.00000020  00000-0 -28259-4 0  9996
2 06845  73.9991  65.2990 0028368  17.3254  53.8378 12.48591051 23389
Source of the keplerian elements: AFSPC